Change the Weather History Date:

Saturday, October 15, 2011

  Actual Average Record
Temperature  
Mean Temperature 62 °F 62 °F  
Max Temperature 75 °F 73 °F 85 °F (1935)
Min Temperature 49 °F 50 °F 34 °F (1987)
Degree Days  
Heating Degree Days 3 5  
Month to date heating degree days 34 48  
Since 1 July heating degree days 37 63  
Cooling Degree Days 0 1  
Month to date cooling degree days 11 36  
Year to date cooling degree days 2108 1725  
Growing Degree Days 12 (Base 50)    
Moisture  
Dew Point 43 °F    
Average Humidity 56    
Maximum Humidity 89    
Minimum Humidity 23    
Precipitation  
Precipitation 0.00 in 0.10 in 1.56 in (2012)
Month to date precipitation 1.44 1.60  
Year to date precipitation 48.86 40.90  
Snow  
Snow 0.00 in 0.00 in - ()
Month to date snowfall 0.0 0.0  
Since 1 July snowfall 0.0 0.0  
Since 1 September snowfall 0.0 0.0  
Snow Depth 0.00 in    
Sea Level Pressure  
Sea Level Pressure 30.05 in    
Wind  
Wind Speed 3 mph (West)    
Max Wind Speed 17 mph    
Max Gust Speed 23 mph    
Visibility 10 miles    
Events      
T = Trace of Precipitation, MM = Missing Value Source: NWS Daily Summary

Daily Weather History Graph

Daily Weather History Graph

Search for Another Location

Airport or City:

Trip Planner

Search our weather history database for the weather conditions in past years. The results will help you decide how hot, cold, wet, or windy it might be!

Date:

Astronomy

Oct. 15, 2011 Rise Set
Actual Time 7:46 AM EDT 7:06 PM EDT
Civil Twilight 7:21 AM EDT 7:31 PM EDT
Nautical Twilight 6:51 AM EDT 8:01 PM EDT
Astronomical Twilight 6:22 AM EDT 8:30 PM EDT
Moon 9:11 PM EDT (10/15) 11:00 AM EDT (10/15)
Length of Visible Light 12h 10m
Length of Day
11h 19m
Waning Gibbous, 89% of the Moon is Illuminated
Oct 15
Waning Gibbous
Oct 19
Last Quarter
Oct 26
New
Nov 2
First Quarter
Nov 10
Full

Hourly Weather History & Observations

Time (EDT) Temp. Dew Point Humidity Pressure Visibility Wind Dir Wind Speed Gust Speed Precip Events Conditions
12:53 AM 55.9 °F 48.9 °F 77% 29.94 in 10.0 mi South 4.6 mph - N/A   Scattered Clouds
1:53 AM 60.1 °F 46.0 °F 60% 29.95 in 10.0 mi South 5.8 mph - N/A   Partly Cloudy
2:53 AM 55.0 °F 48.9 °F 80% 29.97 in 10.0 mi Calm Calm - N/A   Partly Cloudy
3:53 AM 52.0 °F 48.0 °F 86% 29.99 in 10.0 mi Calm Calm - N/A   Partly Cloudy
4:53 AM 52.0 °F 48.0 °F 86% 30.01 in 10.0 mi Calm Calm - N/A   Clear
5:53 AM 51.1 °F 46.9 °F 86% 30.02 in 10.0 mi Calm Calm - N/A   Clear
6:53 AM 50.0 °F 46.9 °F 89% 30.04 in 10.0 mi Calm Calm - N/A   Partly Cloudy
7:53 AM 50.0 °F 46.9 °F 89% 30.05 in 10.0 mi Calm Calm - N/A   Partly Cloudy
8:53 AM 53.1 °F 48.9 °F 86% 30.07 in 10.0 mi Calm Calm - N/A   Partly Cloudy
9:53 AM 61.0 °F 48.0 °F 62% 30.08 in 10.0 mi Calm Calm - N/A   Partly Cloudy
10:53 AM 64.9 °F 43.0 °F 45% 30.09 in 10.0 mi Variable 3.5 mph - N/A   Partly Cloudy
11:53 AM 66.9 °F 39.9 °F 37% 30.09 in 10.0 mi West 4.6 mph - N/A   Clear
12:53 PM 69.1 °F 39.9 °F 35% 30.08 in 10.0 mi West 5.8 mph - N/A   Clear
1:53 PM 72.0 °F 39.0 °F 30% 30.06 in 10.0 mi Variable 5.8 mph - N/A   Clear
2:53 PM 73.9 °F 37.0 °F 26% 30.04 in 10.0 mi West 12.7 mph 19.6 mph N/A   Clear
3:53 PM 73.9 °F 34.0 °F 23% 30.04 in 10.0 mi WNW 12.7 mph 21.9 mph N/A   Clear
4:53 PM 73.9 °F 33.1 °F 22% 30.05 in 10.0 mi West 10.4 mph 20.7 mph N/A   Clear
5:53 PM 72.0 °F 36.0 °F 27% 30.05 in 10.0 mi WNW 9.2 mph - N/A   Clear
6:53 PM 69.1 °F 36.0 °F 30% 30.07 in 10.0 mi WNW 4.6 mph - N/A   Clear
7:53 PM 64.0 °F 37.9 °F 38% 30.09 in 10.0 mi WNW 3.5 mph - N/A   Clear
8:53 PM 55.9 °F 46.0 °F 69% 30.10 in 10.0 mi Calm Calm - N/A   Clear
9:53 PM 54.0 °F 46.0 °F 75% 30.11 in 10.0 mi Calm Calm - N/A   Clear
10:53 PM 54.0 °F 44.1 °F 69% 30.12 in 10.0 mi Calm Calm - N/A   Clear
11:53 PM 50.0 °F 45.0 °F 83% 30.13 in 10.0 mi Calm Calm - N/A   Clear